This is the latest recevied weather packets stored in our database for station/object IZ1GCT. If no packets are shown the sender has not sent any weather packets the latest 10 day(s).
| Time | Temp. | Humidity | Pressure | Rain* | Wind** | Luminosity | Snow |
|---|---|---|---|---|---|---|---|
| 1777745452 | 17.78° C | 46% | 1023.4 hPa | 0 mm | - | - | - |
| 1777745152 | 17.78° C | 45% | 1023.4 hPa | 0 mm | - | - | - |
| 1777744853 | 18.33° C | 42% | 1023.3 hPa | 0 mm | - | - | - |
| 1777744553 | 18.33° C | 42% | 1023.3 hPa | 0 mm | - | - | - |
| 1777744253 | 18.33° C | 41% | 1023.3 hPa | 0 mm | - | - | - |
| 1777743953 | 18.89° C | 40% | 1023.2 hPa | 0 mm | - | - | - |
| 1777743652 | 18.89° C | 39% | 1023.2 hPa | 0 mm | - | - | - |
| 1777743353 | 19.44° C | 38% | 1023.2 hPa | 0 mm | - | - | - |
| 1777743052 | 19.44° C | 38% | 1023.2 hPa | 0 mm | - | - | - |
| 1777742752 | 19.44° C | 39% | 1023.3 hPa | 0 mm | - | - | - |
| 1777742453 | 19.44° C | 38% | 1023.2 hPa | 0 mm | - | - | - |
| 1777742153 | 19.44° C | 37% | 1023.4 hPa | 0 mm | - | - | - |
| 1777741852 | 20° C | 37% | 1023.3 hPa | 0 mm | - | - | - |
| 1777741553 | 20° C | 38% | 1023.3 hPa | 0 mm | - | - | - |
| 1777741253 | 20° C | 37% | 1023.3 hPa | 0 mm | - | - | - |
| 1777740952 | 20.56° C | 37% | 1023.3 hPa | 0 mm | - | - | - |
| 1777740652 | 20.56° C | 38% | 1023.2 hPa | 0 mm | - | - | - |
| 1777740353 | 20.56° C | 38% | 1023.3 hPa | 0 mm | - | - | - |
| 1777740053 | 21.11° C | 37% | 1023.3 hPa | 0 mm | - | - | - |
| 1777739752 | 21.11° C | 36% | 1023.2 hPa | 0 mm | - | - | - |
| 1777739453 | 21.67° C | 37% | 1023.3 hPa | 0 mm | - | - | - |
| 1777739153 | 21.67° C | 36% | 1023.5 hPa | 0 mm | - | - | - |
| 1777738852 | 21.67° C | 36% | 1023.5 hPa | 0 mm | - | - | - |
| 1777738553 | 21.11° C | 36% | 1023.4 hPa | 0 mm | - | - | - |
| 1777738253 | 21.11° C | 36% | 1023.5 hPa | 0 mm | - | - | - |
* Rain latest hour (hover to see other rain measurements)
** Current wind speed in m/s (hover to see current wind gust speed)